Погода в Ижевске

Хотите узнать прогноз погоды в Ижевске? Тогда Вам сюда: Погода в Ижевске

Поиск расширенной информации на нашем сайте:

Полезная информация:

Новости сайта



02.01.2020
Опубликован Долгосрочный прогноз погоды по городам России и ближнего зарубежья на январь 2020 года.
Карты: Прогноз на январь и февраль 2020 года, Сравнение прогнозируемой аномалии приземной температуры воздуха на январь 2020 года по разным моделям.




Погода в Ижевске - сегодня

Время (UTC), дата Ветер
(°,м/с) 
Видим.   Явления Облачность Т
(°С)
Тd
(°С)
f(%) Тe
(°С)
Pmin
(гПа)
dP
(гПа)
Po
(мм)
O2
(г/м3)
Тmin Tmax R s Состояние
почвы
12 03.03.21 240 (ЮЗ) 2-3{05}  10 км  {ливн. осадки, снег}  10/10 300 м кучево-дожд. 
[Cb calv]
+0.2 -3.1 78 -1  997.5  0.1  733  296           
15 03.03.21 300 (СЗ) 3-5{07}  2000 м  слаб. ливневой снег  10/10 300 м кучево-дожд. 
[Cb calv]
-2.3 -3.8 89 -4  998.2  0.5  734  298    +0.8     
18 03.03.21 280 (З) 10 км  {ливн. осадки}  10/10 600 м 
[Sc diur, vesp]
-3.1 -6.9 75 -6  999.2  734  300           
21 03.03.21 280 (З) 4-6{09}  10 км  в посл. час снег  10/10 600 м 
[Sc diur, vesp|Ns]
-4.9 -9.8 68 -8  999.6  0.2  734  302           
00 04.03.21 250 (З) 2-4{06}  10 км  {снег}  6/0 средняя, верхняя 
[Ac trans|Ci fib]
-7.6 -10.7 78 -9  998.7  -1.1  734  305           
03 04.03.21 220 (ЮЗ) 3-4{05}  10 км  {снег}  10/10 1000 м 
[Sc]
-7 -10.8 74 -10  997.7  -0.8  733  304  -7.7    0.0  45  равномерный
сухой снег
100% 
06 04.03.21 230 (ЮЗ) 3-6{06}  10 км  {снег}  8/0 средняя, верхняя 
[Ac trans|Cc]
-5.6 -9.4 75 -8  997.2  -0.4  733  302           
09 04.03.21 210 (ЮЗ) 3-6{07}  10 км    10/6 1000 м средняя 
[Sc|As op]
-5 -8.6 76 -7  995.9  -1.3  732  301           
12 04.03.21 170 (Ю) 4-8{09}  4000 м  слаб. снег  10/0 средняя 
[As op]
-4.3 -7.3 80 -7  992.6  -3.2  729  299           
15 04.03.21 180 (Ю) 5-9{10}  2000 м  снег  10/0 средняя 
[As op]
-4.3 -5.9 89 -8  989.3  -3.2  727  298    -4.1     
18 04.03.21 240 (ЮЗ) 3-7{11}  1000 м  ливневой снег  10/10 300 м кучево-дожд. 
[Cb cap]
-2.9 -4.2 91 -5  986.9  -2.2  725  296           
21 04.03.21 250 (З) 4-8{11}  4000 м  слаб. ливневой снег  10/10 300 м кучево-дожд. 
[Cb cap]
-3.4 -4.8 90 -6  988.6  1.5  726  297           
00 05.03.21 270 (З) 6-11{11}  10 км  позёмок{ливн. осадки}  10/10 600 м кучево-дожд. 
[Cb cap]
-4 -5.9 87 -8  993.1  4.4  730  299           
03 05.03.21 290 (З) 5-10{12}  10 км  позёмок  10/10 600 м кучево-дожд. 
[Cb cap]
-5.8 -9.2 77 -10  996  2.7  732  302  -6.1    50  равномерный
сухой снег
100% 
06 05.03.21 270 (З) 3-5{10}  10 км  слаб. снег  10/8 600 м средняя 
[Sc|Ac As]
-6.3 -10.3 73 -9  998.4  2.3  734  303  -6.5         
09 05.03.21 310 (СЗ) 3-5{07}  10 км  {снег}  4/0 средняя, верхняя 
[Ac trans|Ci fib]
-4.8 -10.1 66 -7  999.4  1.1  734  302           
12 05.03.21 290 (З) 2-4{07}  10 км  {снег}  4/4 1000 м 
[Cu hum]
-3.9 -12.6 51 -5  1000.7  1.4  735  302           
15 05.03.21 260 (З) 1-2{07}  10 км    1/1 1000 м 
[Sc]
-7.4 -13.9 60 -7  1003.4  2.3  737  306    -3.6  0.0     
18 05.03.21 260 (З) 2-3{05}  10 км    3/0 средняя 
[Ac trans]
-9.8 -14.5 69 -12  1005.5  1.9  739  310           
21 05.03.21 230 (ЮЗ) 2-4{06}  10 км    3/0 верхняя 
[Ci fib]
-11 -15.4 70 -13  1006.6  1.1  739  312           
00 06.03.21 240 (ЮЗ) 1-3{05}  10 км    8/0 верхняя 
[Ci fib]
-11.9 -14.6 80 -12  1007.2  0.5  740  313           
03 06.03.21 тихо () -2{05}  10 км  слаб. снег  10/6 600 м средняя 
[Sc|Ac As]
-11.5 -13.5 85 -12  1008  0.8  740  313  -12    0.3  50  равномерный
сухой снег
100% 
06 06.03.21 290 (З) 2-3{04}  10 км  {снег}  9/3 1000 м средняя 
[Sc|Ac trans]
-10.6 -13.4 80 -12  1009.6  1.6  742  312           
09 06.03.21 290 (З) 3-4{05}  10 км  слаб. снег  10/4 1000 м средняя 
[Sc|As trans]
-9.2 -15.4 61 -12  1010.8  1.3  743  311           
12 06.03.21 260 (З) 2-3{04}  10 км  {снег}  9/0 средняя 
[Ac trans]
-8.4 -16 54 -10  1010.8  0.1  743  310           
Время (UTC), дата Ветер
(°,м/с) 
Видим.   Явления Облачность Т
(°С)
Тd
(°С)
f(%) Тe
(°С)
Pmin
(гПа)
dP
(гПа)
Po
(мм)
O2
(г/м3)
Тmin Tmax R s Состояние
почвы

Для получения пояснительной информации подведите курсор к названию столбца.

ПОГОДА в Ижевске - архив

Всё, что Вы хотите узнать о погоде в Ижевске - удобно и подробно!

Выберите нужную дату (начиная с 1 января 2019* года) и нажмите кнопку "Найти".
Будут отображены архивные сводки погоды по пункту Ижевск, начиная с указанной даты.


Отображать данные в формате CSV (для использования в таблицах Excel)


Внимание! Наш архив погоды предназначен исключительно для личного некоммерческого использования в познавательных целях. Если Вам необходимы официальные справки о состоянии погоды (для производственных, юридических, коммерческих и т.п. целей), обращайтесь в органы Росгидромета.

*Примечание: данная дата относится к архиву по метеостанциям СССР (Россия, СНГ, Балтия).
Архив по метеостанциям Зарубежной Европы и Азии (кроме Китая) хранится 10 дней, по другим регионам земного шара (Китай, Африка, Америка, Австралия, Океания) - 1 день.

Ижевск - район местоположения метеостанции


Название, широта, долгота, высота метеостанции:
Ижевск 56.8°ш. 53.4°д. 159 м над ур. моря [Российская Федерация]

Дополнительная информация

В oтличие oт бoльшинства пoгoдных сайтoв мы публикуем пoдрoбную метеoинфoрмацию в детальнoм прoфессиoнальнoм фoрмате.

Характеристики температуры и влажнoсти вoздуха измеряются на высoте 2 м в тени вдали oт зданий и деревьев.
Скoрoсть ветра измеряется на высoте 10 м (на урoвне рoста челoвека скoрoсть ветра ниже в 1.5-2 раза). Если метеoстанция нахoдится в гoрoде или в лесу, тo скoрoсть ветра занижена на 2-4 м/с пo сравнению с oткрытым местoм. Скoрoсть ветра над акватoриями крупных рек и oзёр, а также на вершинах хoлмoв на 2-5 м/с выше, чем в oбычных услoвиях.
Атмoсфернoе давление в разных тoчках местнoсти мoжет значительнo oтличаться oт давления на метеoстанции, в зависимoсти oт услoвий рельефа (при пoдъёме на 10 м давление пoнижается примернo на 1 мм рт.ст.).